Regional Weather Roundup
Issued by NWS

Home | Current Version | Previous Version | Graphics & Text | Print | Product List | Glossary On
Versions: 1 2 3 4 5 6 7 8 9 10 11 12 13 14 15 16 17 18 19 20 21 22 23 24 25 26 27 28 29 30 31 32 33 34 35 36 37 38 39 40 41 42 43 44 45 46 47 48 49 50
000
ASUS45 KCYS 300810
RWRWY

WYOMING REGIONAL WEATHER ROUNDUP
NATIONAL WEATHER SERVICE CHEYENNE WY
100 AM MST FRI JAN 30 2015

NOTE:  "FAIR" INDICATES FEW OR NO CLOUDS BELOW 12,000 FEET
WITH NO SIGNIFICANT WEATHER AND/OR OBSTRUCTIONS TO VISIBILITY.

WYZ001-300900-
YELLOWSTONE NATIONAL PARK

CITY           SKY/WX    TMP DP  RH WIND       PRES   REMARKS
LK YELLOWSTONE   N/A      1  -3  83 CALM      30.32F
W YELLOWSTONE  NOT AVBL

$$
WYZ002>013-054>058-071-098>099-300900-
NORTHERN WYOMING

CITY           SKY/WX    TMP DP  RH WIND       PRES   REMARKS
JACKSON        FAIR      14  12  92 N8        30.31F WCI   3
CODY           FAIR      27  25  93 CALM      30.24F
GREYBULL       FAIR      25  24  96 CALM      30.27F FOG
WORLAND        FAIR      22  20  92 S5        30.26F WCI  16
SHERIDAN       FAIR      21  17  84 S5        30.23R WCI  15
BUFFALO        FAIR      35   8  32 NW8       30.21S WCI  29
GILLETTE       FAIR      30  23  75 S9        30.21S WCI  22
HULETT           N/A    N/A N/A N/A MISG        N/A
NEWCASTLE      FAIR      32  19  59 E7        30.27F WCI  26

$$
WYZ014>020-022>026-101>103-300900-
CENTRAL WYOMING

CITY           SKY/WX    TMP DP  RH WIND       PRES   REMARKS
BIG PINEY      FAIR      18  14  84 NE3       30.29F
PINEDALE       FAIR      14  12  92 W8        30.30F WCI   3
DUBOIS         FAIR      23  10  58 NW9       30.22F WCI  13
LANDER         FAIR      30  22  72 NW5       30.23F WCI  25
RIVERTON       FAIR      28  25  88 N5        30.25F WCI  23
CASPER         FAIR      31  25  78 SW3       30.24F
DOUGLAS        FAIR      25  21  85 S3        30.26F

$$
WYZ021-027>030-104>119-300900-
SOUTHERN WYOMING

CITY           SKY/WX    TMP DP  RH WIND       PRES   REMARKS
EVANSTON       CLOUDY    31  25  78 NE7       30.25F WCI  24
KEMMERER       CLOUDY    27  23  86 N8        30.26F WCI  18
FORT BRIDGER   PTSUNNY   31  30  95 CALM      30.30S
ROCK SPRINGS   MOCLDY    30  26  85 S3        30.25F
DIXON          FAIR      30  27  88 CALM      30.30F
RAWLINS        FAIR      27  24  89 CALM      30.27F
SARATOGA       FAIR      30  25  80 CALM      30.27F
LARAMIE        FAIR      28  23  81 S8        30.25F WCI  20
CHEYENNE       FAIR      27  19  72 SW5       30.27F WCI  22
TORRINGTON     FAIR      26  19  74 E8        30.29F WCI  18
PINE BLUFFS    FAIR      28  21  74 S3        30.29F

$$


USA.gov is the U.S. government's official web portal to all federal, state and local government web resources and services.